Claremore, OK

2:20 PM CDT on July 24, 2016 (GMT -0500)
Claremore Regional

Weather History for KGCM - October, 2012

Change the Weather History Date:

Saturday, October 6, 2012

  Actual Average (KTUL) Record (KTUL)
Temperature  
Mean Temperature 42 °F 65 °F  
Max Temperature 46 °F 76 °F 98 °F (1939)
Min Temperature 37 °F 54 °F 35 °F (1932)
Degree Days  
Heating Degree Days 24 3  
Month to date heating degree days 18  
Since 1 July heating degree days 42  
Cooling Degree Days 0 3  
Month to date cooling degree days 22  
Year to date cooling degree days 1987  
Moisture  
Dew Point 35 °F    
Average Humidity 76    
Maximum Humidity 93    
Minimum Humidity 61    
Precipitation  
Precipitation 0.04 in 0.12 in 3.24 in (1951)
Month to date precipitation 0.74  
Year to date precipitation 32.48  
Sea Level Pressure  
Sea Level Pressure 30.32 in    
Wind  
Wind Speed 6 mph (NNE)    
Max Wind Speed 10 mph    
Max Gust Speed 16 mph    
Visibility 10 miles    
Events Rain , Thunderstorm    
T = Trace of Precipitation, MM = Missing Value Source: NWS Daily Summary

Daily Weather History Graph

Daily Weather History Graph

Search for Another Location

Airport or City:

Trip Planner

Search our weather history database for the weather conditions in past years. The results will help you decide how hot, cold, wet, or windy it might be!

Date:

Astronomy

Oct. 06, 2012 Rise Set
Actual Time 7:21 AM CDT 6:57 PM CDT
Civil Twilight 6:55 AM CDT 7:23 PM CDT
Nautical Twilight 6:26 AM CDT 7:52 PM CDT
Astronomical Twilight 5:56 AM CDT 8:22 PM CDT
Moon 11:21 PM CDT (10/6) 1:08 PM CDT (10/6)
Length of Visible Light 12h 27m
Length of Day
11h 35m
Waning Gibbous, 65% of the Moon is Illuminated
Oct 6
Waning Gibbous
Oct 8
Last Quarter
Oct 15
New
Oct 21
First Quarter
Oct 29
Full

Hourly Weather History & Observations

Time (CDT) Temp. Windchill Dew Point Humidity Pressure Visibility Wind Dir Wind Speed Gust Speed Precip Events Conditions
12:15 AM 39.2 °F 35.9 °F 35.6 °F 87% 30.29 in 10.0 mi NNE 4.6 mph - N/A   Clear
12:35 AM 41.0 °F 36.4 °F 37.4 °F 87% 30.29 in 10.0 mi NNE 6.9 mph - N/A   Clear
12:55 AM 41.0 °F 36.4 °F 35.6 °F 81% 30.29 in 10.0 mi NE 6.9 mph - N/A   Clear
1:15 AM 39.2 °F 35.9 °F 35.6 °F 87% 30.29 in 10.0 mi NNE 4.6 mph - N/A   Clear
1:35 AM 39.2 °F 35.9 °F 35.6 °F 87% 30.29 in 10.0 mi NE 4.6 mph - N/A   Clear
1:55 AM 37.4 °F 33.8 °F 35.6 °F 93% 30.30 in 10.0 mi NE 4.6 mph - N/A   Clear
2:15 AM 37.4 °F 34.9 °F 35.6 °F 93% 30.31 in 10.0 mi North 3.5 mph - N/A   Clear
2:35 AM 37.4 °F 33.8 °F 35.6 °F 93% 30.31 in 10.0 mi North 4.6 mph - N/A   Clear
2:55 AM 39.2 °F 35.0 °F 35.6 °F 87% 30.30 in 10.0 mi NNE 5.8 mph - N/A   Clear
3:15 AM 37.4 °F 31.4 °F 35.6 °F 93% 30.30 in 10.0 mi NNE 8.1 mph - N/A   Clear
3:35 AM 39.2 °F 34.2 °F 35.6 °F 87% 30.29 in 10.0 mi NNE 6.9 mph - N/A   Clear
4:15 AM 39.2 °F 33.6 °F 33.8 °F 81% 30.30 in 10.0 mi NNE 8.1 mph - N/A   Clear
4:35 AM 39.2 °F 33.6 °F 35.6 °F 87% 30.28 in 10.0 mi NE 8.1 mph - N/A   Clear
4:55 AM 39.2 °F 34.2 °F 33.8 °F 81% 30.30 in 10.0 mi NNE 6.9 mph - N/A   Scattered Clouds
5:15 AM 39.2 °F 35.9 °F 35.6 °F 87% 30.30 in 10.0 mi NE 4.6 mph - N/A   Overcast
5:35 AM 41.0 °F 39.0 °F 35.6 °F 81% 30.30 in 10.0 mi NE 3.5 mph - N/A   Overcast
5:55 AM 41.0 °F 34.7 °F 35.6 °F 81% 30.29 in 10.0 mi ENE 10.4 mph - N/A   Mostly Cloudy
6:15 AM 41.0 °F 35.8 °F 33.8 °F 76% 30.29 in 10.0 mi NE 8.1 mph - N/A   Mostly Cloudy
6:35 AM 41.0 °F 36.4 °F 35.6 °F 81% 30.30 in 10.0 mi NE 6.9 mph - N/A   Scattered Clouds
6:55 AM 41.0 °F 37.1 °F 35.6 °F 81% 30.30 in 10.0 mi NE 5.8 mph - N/A   Clear
7:15 AM 41.0 °F 38.0 °F 35.6 °F 81% 30.30 in 10.0 mi ENE 4.6 mph - N/A   Clear
7:35 AM 41.0 °F 37.1 °F 35.6 °F 81% 30.29 in 10.0 mi NE 5.8 mph - N/A   Clear
7:55 AM 41.0 °F 37.1 °F 35.6 °F 81% 30.30 in 10.0 mi NNE 5.8 mph - N/A   Clear
8:15 AM 41.0 °F 38.0 °F 35.6 °F 81% 30.29 in 10.0 mi ENE 4.6 mph - N/A   Clear
8:35 AM 42.8 °F 41.1 °F 35.6 °F 76% 30.31 in 10.0 mi North 3.5 mph - N/A Rain Light Rain
8:55 AM 41.0 °F 38.0 °F 35.6 °F 81% 30.32 in 10.0 mi NNE 4.6 mph - N/A Rain Light Rain
9:15 AM 42.8 °F - 35.6 °F 76% 30.36 in 10.0 mi Calm Calm - N/A Rain Light Rain
9:35 AM 42.8 °F - 37.4 °F 81% 30.34 in 10.0 mi Calm Calm - N/A Rain Light Rain
9:55 AM 42.8 °F 41.1 °F 37.4 °F 81% 30.33 in 10.0 mi NE 3.5 mph - N/A Rain Rain
10:15 AM 42.8 °F 38.6 °F 37.4 °F 81% 30.36 in 10.0 mi North 6.9 mph - N/A Rain Light Rain
10:35 AM 42.8 °F 37.5 °F 37.4 °F 81% 30.34 in 10.0 mi NNE 9.2 mph - 0.01 in Rain Light Rain
10:55 AM 42.8 °F 38.6 °F 37.4 °F 81% 30.35 in 10.0 mi NNE 6.9 mph - 0.01 in   Scattered Clouds
11:15 AM 44.6 °F 40.7 °F 35.6 °F 71% 30.35 in 10.0 mi NE 6.9 mph - N/A   Clear
11:35 AM 44.6 °F 39.7 °F 35.6 °F 71% 30.34 in 10.0 mi NE 9.2 mph - N/A   Clear
11:55 AM 44.6 °F 39.7 °F 35.6 °F 71% 30.36 in 10.0 mi NNE 9.2 mph - N/A Thunderstorm Scattered Clouds
12:15 PM 44.6 °F 40.7 °F 35.6 °F 71% 30.36 in 10.0 mi NE 6.9 mph - N/A   Clear
12:35 PM 46.4 °F 41.9 °F 33.8 °F 62% 30.34 in 10.0 mi NNE 9.2 mph - N/A   Scattered Clouds
12:55 PM 46.4 °F 41.5 °F 35.6 °F 66% 30.34 in 10.0 mi NNE 10.4 mph - N/A Rain Rain
1:15 PM 46.4 °F 42.4 °F 35.6 °F 66% 30.34 in 10.0 mi North 8.1 mph - N/A Rain Light Rain
1:35 PM 46.4 °F 42.9 °F 35.6 °F 66% 30.33 in 10.0 mi NNE 6.9 mph - N/A   Scattered Clouds
1:55 PM 44.6 °F 40.7 °F 35.6 °F 71% 30.32 in 7.0 mi NNE 6.9 mph - 0.01 in Rain Rain
2:15 PM 44.6 °F 43.1 °F 37.4 °F 76% 30.31 in 7.0 mi NE 3.5 mph - 0.01 in Rain Light Rain
2:35 PM 44.6 °F - 39.2 °F 81% 30.31 in 10.0 mi Calm Calm - 0.01 in   Scattered Clouds
2:55 PM 46.4 °F 41.5 °F 37.4 °F 71% 30.30 in 10.0 mi North 10.4 mph - 0.01 in   Mostly Cloudy
3:15 PM 46.4 °F 43.5 °F 39.2 °F 76% 30.30 in 10.0 mi North 5.8 mph - N/A   Light Drizzle
3:35 PM 46.4 °F 42.4 °F 37.4 °F 71% 30.30 in 10.0 mi NNE 8.1 mph - N/A   Mostly Cloudy
3:55 PM 46.4 °F 42.4 °F 35.6 °F 66% 30.31 in 10.0 mi NNE 8.1 mph - N/A   Mostly Cloudy
4:15 PM 46.4 °F 42.9 °F 35.6 °F 66% 30.30 in 10.0 mi North 6.9 mph - N/A Rain Rain
4:35 PM 44.6 °F 39.2 °F 33.8 °F 66% 30.28 in 10.0 mi NNE 10.4 mph - N/A Rain Rain
4:55 PM 44.6 °F 39.7 °F 35.6 °F 71% 30.29 in 10.0 mi North 9.2 mph - 0.01 in Rain Light Rain
5:15 PM 44.6 °F 40.2 °F 35.6 °F 71% 30.28 in 10.0 mi NNE 8.1 mph - N/A   Scattered Clouds
5:35 PM 44.6 °F 39.2 °F 33.8 °F 66% 30.29 in 10.0 mi NNE 10.4 mph 16.1 mph N/A   Scattered Clouds
5:55 PM 46.4 °F 42.9 °F 33.8 °F 62% 30.30 in 10.0 mi NE 6.9 mph - N/A   Scattered Clouds
6:15 PM 46.4 °F 44.3 °F 33.8 °F 62% 30.30 in 10.0 mi NE 4.6 mph - N/A   Mostly Cloudy
6:35 PM 44.6 °F 42.2 °F 33.8 °F 66% 30.31 in 10.0 mi NNE 4.6 mph - N/A   Mostly Cloudy
6:55 PM 44.6 °F 40.7 °F 33.8 °F 66% 30.31 in 10.0 mi North 6.9 mph - N/A   Scattered Clouds
7:15 PM 44.6 °F 40.7 °F 32.0 °F 61% 30.32 in 10.0 mi North 6.9 mph - N/A   Mostly Cloudy
7:35 PM 44.6 °F 40.2 °F 32.0 °F 61% 30.32 in 10.0 mi North 8.1 mph - N/A   Overcast
7:55 PM 44.6 °F 41.4 °F 32.0 °F 61% 30.33 in 10.0 mi North 5.8 mph - N/A   Mostly Cloudy
8:15 PM 44.6 °F 43.1 °F 32.0 °F 61% 30.33 in 10.0 mi NNE 3.5 mph - N/A   Mostly Cloudy
8:35 PM 42.8 °F - 33.8 °F 70% 30.33 in 10.0 mi Calm Calm - N/A   Mostly Cloudy
8:55 PM 42.8 °F 40.1 °F 33.8 °F 70% 30.33 in 10.0 mi North 4.6 mph - N/A   Scattered Clouds
9:15 PM 42.8 °F 40.1 °F 33.8 °F 70% 30.34 in 10.0 mi North 4.6 mph - N/A   Mostly Cloudy
9:35 PM 42.8 °F 41.1 °F 32.0 °F 66% 30.34 in 10.0 mi North 3.5 mph - N/A   Scattered Clouds
9:55 PM 41.0 °F - 32.0 °F 70% 30.34 in 10.0 mi Calm Calm - N/A   Clear
10:15 PM 39.2 °F - 32.0 °F 75% 30.34 in 10.0 mi Calm Calm - N/A   Scattered Clouds
10:35 PM 39.2 °F 37.0 °F 32.0 °F 75% 30.34 in 10.0 mi NNE 3.5 mph - N/A   Mostly Cloudy
10:55 PM 41.0 °F - 32.0 °F 70% 30.34 in 10.0 mi Calm Calm - N/A   Mostly Cloudy
11:15 PM 41.0 °F - 33.8 °F 76% 30.34 in 10.0 mi Calm Calm - N/A   Overcast
11:35 PM 41.0 °F - 33.8 °F 76% 30.34 in 10.0 mi Calm Calm - N/A   Mostly Cloudy
11:55 PM 41.0 °F 39.0 °F 33.8 °F 76% 30.34 in 10.0 mi North 3.5 mph - N/A   Scattered Clouds